Cumberland, WV

1:52 PM EDT on September 20, 2017 (GMT -0400)
Greater Cumberland Regional

Weather History for KCBE - March, 2013

Change the Weather History Date:

Thursday, March 14, 2013

  Actual Average (KMRB) Record (KMRB)
Temperature  
Mean Temperature 36 °F -  
Max Temperature 41 °F 49 °F 84 °F (1990)
Min Temperature 30 °F 32 °F 15 °F (1968)
Degree Days  
Heating Degree Days 30    
Moisture  
Dew Point 18 °F    
Average Humidity 52    
Maximum Humidity 64    
Minimum Humidity 42    
Precipitation  
Precipitation 0.00 in - - ()
Sea Level Pressure  
Sea Level Pressure 30.15 in    
Wind  
Wind Speed 9 mph (WNW)    
Max Wind Speed 29 mph    
Max Gust Speed 39 mph    
Visibility 10 miles    
Events      
Averages and records for this station are not official NWS values.
T = Trace of Precipitation, MM = Missing Value Source: NWS Daily Summary

Daily Weather History Graph

Daily Weather History Graph

Search for Another Location

Airport or City:

Trip Planner

Search our weather history database for the weather conditions in past years. The results will help you decide how hot, cold, wet, or windy it might be!

Date:

Astronomy

Mar. 14, 2013 Rise Set
Actual Time 7:27 AM EDT 7:21 PM EDT
Civil Twilight 7:00 AM EDT 7:48 PM EDT
Nautical Twilight 6:29 AM EDT 8:19 PM EDT
Astronomical Twilight 5:58 AM EDT 8:51 PM EDT
Moon 8:41 AM EDT (3/14) 10:34 PM EDT (3/14)
Length of Visible Light 12h 47m
Length of Day
11h 53m
Waxing Crescent, 9% of the Moon is Illuminated
Mar 14
Waxing Crescent
Mar 19
First Quarter
Mar 27
Full
Apr 3
Last Quarter
Apr 10
New

Hourly Weather History & Observations

Time (EDT) Temp. Windchill Dew Point Humidity Pressure Visibility Wind Dir Wind Speed Gust Speed Precip Events Conditions
12:07 AM 32.0 °F 25.6 °F 19.4 °F 60% 30.12 in 10.0 mi West 6.9 mph 21.9 mph N/A   Mostly Cloudy
12:27 AM 32.0 °F 23.0 °F 19.4 °F 60% 30.13 in 10.0 mi WNW 11.5 mph 16.1 mph N/A   Mostly Cloudy
12:47 AM 32.0 °F 22.1 °F 19.4 °F 60% 30.13 in 10.0 mi West 13.8 mph 24.2 mph N/A   Mostly Cloudy
1:07 AM 32.0 °F 23.6 °F 19.4 °F 60% 30.13 in 10.0 mi WNW 10.4 mph 24.2 mph N/A   Scattered Clouds
1:27 AM 32.0 °F 21.2 °F 17.6 °F 55% 30.13 in 10.0 mi WNW 16.1 mph 25.3 mph N/A   Scattered Clouds
1:47 AM 32.0 °F 26.4 °F 19.4 °F 60% 30.13 in 10.0 mi NNW 5.8 mph - N/A   Scattered Clouds
2:07 AM 32.0 °F 26.4 °F 19.4 °F 60% 30.13 in 10.0 mi NW 5.8 mph 16.1 mph N/A   Mostly Cloudy
2:27 AM 30.2 °F 22.6 °F 17.6 °F 60% 30.13 in 10.0 mi WNW 8.1 mph 18.4 mph N/A   Mostly Cloudy
2:48 AM 30.2 °F 23.4 °F 17.6 °F 60% 30.14 in 10.0 mi NW 6.9 mph 25.3 mph N/A   Mostly Cloudy
3:08 AM 30.2 °F 24.3 °F 19.4 °F 64% 30.14 in 10.0 mi West 5.8 mph - N/A   Mostly Cloudy
3:28 AM 30.2 °F 20.8 °F 17.6 °F 60% 30.13 in 10.0 mi West 11.5 mph 17.3 mph N/A   Scattered Clouds
3:48 AM 30.2 °F 23.4 °F 17.6 °F 60% 30.13 in 10.0 mi West 6.9 mph - N/A   Mostly Cloudy
4:08 AM 30.2 °F 26.7 °F 17.6 °F 60% 30.13 in 10.0 mi SW 3.5 mph - N/A   Overcast
4:28 AM 30.2 °F 23.4 °F 17.6 °F 60% 30.13 in 10.0 mi WSW 6.9 mph - N/A   Overcast
4:48 AM 30.2 °F 25.4 °F 17.6 °F 60% 30.13 in 10.0 mi West 4.6 mph - N/A   Overcast
5:08 AM 30.2 °F - 17.6 °F 60% 30.14 in 10.0 mi Calm Calm - N/A   Overcast
5:28 AM 30.2 °F 25.4 °F 17.6 °F 60% 30.13 in 10.0 mi NNW 4.6 mph - N/A   Overcast
5:48 AM 30.2 °F 24.3 °F 17.6 °F 60% 30.14 in 10.0 mi WSW 5.8 mph 17.3 mph N/A   Overcast
6:08 AM 30.2 °F 20.8 °F 15.8 °F 55% 30.15 in 10.0 mi West 11.5 mph 24.2 mph N/A   Scattered Clouds
6:28 AM 30.2 °F 20.2 °F 19.4 °F 64% 30.15 in 10.0 mi West 12.7 mph 20.7 mph N/A   Mostly Cloudy
6:48 AM 30.2 °F 18.9 °F 17.6 °F 60% 30.16 in 10.0 mi West 16.1 mph 21.9 mph N/A   Scattered Clouds
7:08 AM 30.2 °F 20.2 °F 15.8 °F 55% 30.16 in 10.0 mi West 12.7 mph 23.0 mph N/A   Scattered Clouds
7:28 AM 30.2 °F - 15.8 °F 55% 30.17 in 10.0 mi Calm Calm - N/A   Scattered Clouds
7:48 AM 30.2 °F 18.9 °F 15.8 °F 55% 30.18 in 10.0 mi WSW 16.1 mph 26.5 mph N/A   Scattered Clouds
8:08 AM 30.2 °F 22.6 °F 15.8 °F 55% 30.18 in 10.0 mi West 8.1 mph 28.8 mph N/A   Mostly Cloudy
8:28 AM 30.2 °F 22.6 °F 14.0 °F 51% 30.19 in 10.0 mi WNW 8.1 mph 24.2 mph N/A   Scattered Clouds
8:48 AM 30.2 °F 26.7 °F 14.0 °F 51% 30.20 in 10.0 mi WNW 3.5 mph 19.6 mph N/A   Scattered Clouds
9:08 AM 30.2 °F 22.6 °F 14.0 °F 51% 30.20 in 10.0 mi NW 8.1 mph 29.9 mph N/A   Scattered Clouds
9:28 AM 30.2 °F 20.2 °F 14.0 °F 51% 30.20 in 10.0 mi WNW 12.7 mph 26.5 mph N/A   Clear
9:48 AM 30.2 °F 19.3 °F 15.8 °F 55% 30.20 in 10.0 mi West 15.0 mph 25.3 mph N/A   Scattered Clouds
10:08 AM 32.0 °F 22.1 °F 15.8 °F 51% 30.20 in 10.0 mi WNW 13.8 mph 29.9 mph N/A   Scattered Clouds
10:28 AM 32.0 °F 20.1 °F 17.6 °F 55% 30.19 in 10.0 mi West 19.6 mph 31.1 mph N/A   Clear
10:48 AM 32.0 °F 21.6 °F 17.6 °F 55% 30.19 in 10.0 mi West 15.0 mph 28.8 mph N/A   Clear
11:09 AM 32.0 °F 21.2 °F 17.6 °F 55% 30.19 in 10.0 mi WNW 16.1 mph 27.6 mph N/A   Clear
11:29 AM 33.8 °F 27.0 °F 17.6 °F 52% 30.18 in 10.0 mi NW 8.1 mph 27.6 mph N/A   Clear
11:49 AM 33.8 °F 25.3 °F 17.6 °F 52% 30.18 in 10.0 mi NW 11.5 mph 24.2 mph N/A   Clear
12:09 PM 35.6 °F 27.1 °F 19.4 °F 52% 30.18 in 10.0 mi WNW 12.7 mph 23.0 mph N/A   Scattered Clouds
12:29 PM 35.6 °F 28.6 °F 17.6 °F 48% 30.18 in 10.0 mi West 9.2 mph 19.6 mph N/A   Scattered Clouds
12:49 PM 35.6 °F 25.5 °F 17.6 °F 48% 30.17 in 10.0 mi NW 17.3 mph 32.2 mph N/A   Scattered Clouds
1:09 PM 35.6 °F 29.9 °F 19.4 °F 52% 30.18 in 10.0 mi WNW 6.9 mph 21.9 mph N/A   Scattered Clouds
1:29 PM 35.6 °F 26.6 °F 19.4 °F 52% 30.17 in 10.0 mi NNW 13.8 mph 20.7 mph N/A   Scattered Clouds
1:49 PM 35.6 °F 28.6 °F 19.4 °F 52% 30.16 in 10.0 mi WNW 9.2 mph 26.5 mph N/A   Scattered Clouds
2:09 PM 37.4 °F 28.9 °F 19.4 °F 48% 30.15 in 10.0 mi WNW 13.8 mph 26.5 mph N/A   Scattered Clouds
2:29 PM 37.4 °F 29.3 °F 19.4 °F 48% 30.14 in 10.0 mi WNW 12.7 mph 28.8 mph N/A   Scattered Clouds
2:49 PM 37.4 °F 27.5 °F 17.6 °F 45% 30.13 in 10.0 mi West 18.4 mph 27.6 mph N/A   Scattered Clouds
3:09 PM 37.4 °F 25.2 °F 17.6 °F 45% 30.13 in 10.0 mi West 28.8 mph 39.1 mph N/A   Scattered Clouds
3:29 PM 37.4 °F 28.5 °F 19.4 °F 48% 30.13 in 10.0 mi WNW 15.0 mph 33.4 mph N/A   Scattered Clouds
3:49 PM 37.4 °F 27.2 °F 19.4 °F 48% 30.12 in 10.0 mi NW 19.6 mph 34.5 mph N/A   Scattered Clouds
4:09 PM 39.2 °F 32.0 °F 19.4 °F 45% 30.12 in 10.0 mi NW 11.5 mph 32.2 mph N/A   Scattered Clouds
4:29 PM 41.0 °F 32.8 °F 19.4 °F 42% 30.11 in 10.0 mi NW 16.1 mph 31.1 mph N/A   Scattered Clouds
4:49 PM 41.0 °F 34.3 °F 19.4 °F 42% 30.11 in 10.0 mi NW 11.5 mph 23.0 mph N/A   Clear
5:09 PM 41.0 °F 31.4 °F 19.4 °F 42% 30.11 in 10.0 mi West 21.9 mph 32.2 mph N/A   Clear
5:29 PM 41.0 °F 32.5 °F 19.4 °F 42% 30.11 in 10.0 mi West 17.3 mph 24.2 mph N/A   Clear
5:49 PM 41.0 °F 33.9 °F 19.4 °F 42% 30.11 in 10.0 mi West 12.7 mph 24.2 mph N/A   Clear
6:09 PM 41.0 °F 35.8 °F 19.4 °F 42% 30.12 in 10.0 mi WNW 8.1 mph 23.0 mph N/A   Clear
6:29 PM 41.0 °F 36.4 °F 19.4 °F 42% 30.12 in 10.0 mi West 6.9 mph - N/A   Clear
6:49 PM 39.2 °F 35.9 °F 19.4 °F 45% 30.12 in 10.0 mi West 4.6 mph - N/A   Clear
7:10 PM 37.4 °F 31.4 °F 17.6 °F 45% 30.12 in 10.0 mi WNW 8.1 mph 20.7 mph N/A   Clear
7:30 PM 37.4 °F 30.8 °F 17.6 °F 45% 30.13 in 10.0 mi NW 9.2 mph 18.4 mph N/A   Clear
7:50 PM 37.4 °F 29.8 °F 19.4 °F 48% 30.13 in 10.0 mi WNW 11.5 mph 20.7 mph N/A   Clear
8:10 PM 37.4 °F 34.9 °F 19.4 °F 48% 30.13 in 10.0 mi WNW 3.5 mph 19.6 mph N/A   Clear
8:30 PM 37.4 °F 31.4 °F 19.4 °F 48% 30.13 in 10.0 mi West 8.1 mph - N/A   Clear
8:50 PM 37.4 °F 33.8 °F 19.4 °F 48% 30.13 in 10.0 mi West 4.6 mph 10.4 mph N/A   Clear
9:10 PM 35.6 °F - 19.4 °F 52% 30.13 in 10.0 mi Calm Calm - N/A   Clear
9:30 PM 37.4 °F 34.9 °F 19.4 °F 48% 30.13 in 10.0 mi WNW 3.5 mph - N/A   Clear
9:50 PM 35.6 °F - 19.4 °F 52% 30.13 in 10.0 mi Calm Calm - N/A   Clear
10:10 PM 35.6 °F 31.7 °F 19.4 °F 52% 30.13 in 10.0 mi NW 4.6 mph - N/A   Clear
10:30 PM 35.6 °F 32.8 °F 19.4 °F 52% 30.13 in 10.0 mi NW 3.5 mph - N/A   Clear
10:50 PM 35.6 °F - 19.4 °F 52% 30.14 in 10.0 mi Calm Calm - N/A   Clear
11:10 PM 35.6 °F 31.7 °F 19.4 °F 52% 30.15 in 10.0 mi SW 4.6 mph - N/A   Clear
11:30 PM 35.6 °F - 19.4 °F 52% 30.15 in 10.0 mi Calm Calm - N/A   Clear
11:50 PM 35.6 °F - 19.4 °F 52% 30.15 in 10.0 mi Calm Calm - N/A   Clear